User: anonymous   Login
Location: Newark
(29.9790°N, 31.1340°E)
Time: 04:39:14
(UTC+00:00)
Language:

Altair - Orbit

View from above orbital plane
View from above orbital plane
View from above satellite
View from above satellite

Ground track
Ground track

The orbit data is extracted from the following two-line orbital elements,

1    50U 60009B   20028.51325942 -.00000087  00000-0 -27631-4 0  9993
2    50  47.2295 198.7005 0113349 265.5722  93.2110 12.20108998653466
Epoch (UTC): 28 January 2020 12:19:05
Eccentricity: 0.0113349
inclination: 47.2295°
perigee height: 1502 km
apogee height: 1682 km
right ascension of ascending node: 198.7005°
argument of perigee: 265.5722°
revolutions per day: 12.20108998
mean anomaly at epoch: 93.2110°
orbit number at epoch: 65346

The dashed part of the orbit path shows where the satellite is in the earth's shadow,  

DLR